Time,TemperatureF,DewpointF,PressureIn,WindDirection,WindDirectionDegrees,WindSpeedMPH,WindSpeedGustMPH,Humidity,HourlyPrecipIn,Conditions,Clouds,dailyrainin,SoftwareType,DateUTC
2013-05-28 00:06:00,75.8,70.0,29.90,SSE,154,4.0,11.0,82,0.00,,,0.00,weatherlink.com 1.10,2013-05-28 05:06:00,
2013-05-28 00:21:00,75.5,70.0,29.90,ESE,122,0.0,11.0,82,0.00,,,0.00,weatherlink.com 1.10,2013-05-28 05:21:00,
2013-05-28 00:36:00,75.1,69.0,29.90,SSE,165,1.0,8.0,82,0.00,,,0.00,weatherlink.com 1.10,2013-05-28 05:36:00,
2013-05-28 00:51:00,74.8,69.0,29.89,SSW,206,7.0,10.0,83,0.00,,,0.00,weatherlink.com 1.10,2013-05-28 05:51:00,
2013-05-28 01:06:00,74.3,69.0,29.89,SSW,192,4.0,9.0,84,0.00,,,0.00,weatherlink.com 1.10,2013-05-28 06:06:00,
2013-05-28 01:21:00,73.9,69.0,29.89,SE,129,4.0,8.0,85,0.00,,,0.00,weatherlink.com 1.10,2013-05-28 06:21:00,
2013-05-28 01:36:00,73.5,69.0,29.88,SSE,149,2.0,10.0,86,0.00,,,0.00,weatherlink.com 1.10,2013-05-28 06:36:00,
2013-05-28 01:51:00,73.1,69.0,29.88,SSW,201,6.0,11.0,87,0.00,,,0.00,weatherlink.com 1.10,2013-05-28 06:51:00,
2013-05-28 02:06:00,72.8,69.0,29.87,SE,137,0.0,9.0,88,0.00,,,0.00,weatherlink.com 1.10,2013-05-28 07:06:00,
2013-05-28 02:21:00,72.4,69.0,29.87,SW,214,0.0,9.0,88,0.00,,,0.00,weatherlink.com 1.10,2013-05-28 07:21:00,
2013-05-28 02:36:00,72.2,69.0,29.86,South,184,4.0,9.0,89,0.00,,,0.00,weatherlink.com 1.10,2013-05-28 07:36:00,
2013-05-28 02:51:00,71.9,69.0,29.86,SSE,160,4.0,9.0,90,0.00,,,0.00,weatherlink.com 1.10,2013-05-28 07:51:00,
2013-05-28 03:06:00,72.1,69.0,29.86,SSW,195,5.0,10.0,90,0.00,,,0.00,weatherlink.com 1.10,2013-05-28 08:06:00,
2013-05-28 03:21:00,72.4,69.0,29.86,South,170,7.0,8.0,89,0.00,,,0.00,weatherlink.com 1.10,2013-05-28 08:21:00,
2013-05-28 03:36:00,72.7,69.0,29.85,South,191,10.0,13.0,89,0.00,,,0.00,weatherlink.com 1.10,2013-05-28 08:36:00,
2013-05-28 03:51:00,72.9,70.0,29.86,SSE,149,7.0,14.0,89,0.00,,,0.00,weatherlink.com 1.10,2013-05-28 08:51:00,
2013-05-28 04:06:00,73.0,69.0,29.85,SSW,211,6.0,17.0,88,0.00,,,0.00,weatherlink.com 1.10,2013-05-28 09:06:00,
2013-05-28 04:21:00,73.1,69.0,29.86,SSE,151,5.0,18.0,88,0.00,,,0.00,weatherlink.com 1.10,2013-05-28 09:21:00,
2013-05-28 04:36:00,73.2,70.0,29.86,SSE,163,2.0,14.0,88,0.00,,,0.00,weatherlink.com 1.10,2013-05-28 09:36:00,
2013-05-28 04:51:00,73.3,70.0,29.86,South,169,11.0,15.0,88,0.00,,,0.00,weatherlink.com 1.10,2013-05-28 09:51:00,
2013-05-28 05:06:00,73.1,69.0,29.86,SSE,165,10.0,12.0,88,0.00,,,0.00,weatherlink.com 1.10,2013-05-28 10:06:00,
2013-05-28 05:21:00,73.1,69.0,29.87,South,186,9.0,13.0,88,0.00,,,0.00,weatherlink.com 1.10,2013-05-28 10:21:00,
2013-05-28 05:36:00,73.1,69.0,29.87,SSW,198,7.0,10.0,88,0.00,,,0.00,weatherlink.com 1.10,2013-05-28 10:36:00,
2013-05-28 05:51:00,73.1,69.0,29.88,SSW,202,4.0,11.0,88,0.00,,,0.00,weatherlink.com 1.10,2013-05-28 10:51:00,
2013-05-28 06:06:00,73.1,69.0,29.88,SSW,198,0.0,9.0,88,0.00,,,0.00,weatherlink.com 1.10,2013-05-28 11:06:00,
2013-05-28 06:21:00,73.1,69.0,29.89,South,175,3.0,9.0,88,0.00,,,0.00,weatherlink.com 1.10,2013-05-28 11:21:00,
2013-05-28 06:37:00,73.2,70.0,29.89,South,176,4.0,12.0,88,0.00,,,0.00,weatherlink.com 1.10,2013-05-28 11:37:00,
2013-05-28 06:52:00,73.3,70.0,29.88,South,188,5.0,16.0,88,0.00,,,0.00,weatherlink.com 1.10,2013-05-28 11:52:00,
2013-05-28 07:07:00,73.3,70.0,29.89,SSE,159,4.0,12.0,88,0.00,,,0.00,weatherlink.com 1.10,2013-05-28 12:07:00,
2013-05-28 07:22:00,73.3,70.0,29.89,South,181,7.0,11.0,89,0.00,,,0.00,weatherlink.com 1.10,2013-05-28 12:22:00,
2013-05-28 07:37:00,73.9,70.0,29.89,SSW,197,7.0,14.0,88,0.00,,,0.00,weatherlink.com 1.10,2013-05-28 12:37:00,
2013-05-28 07:52:00,74.2,70.0,29.89,South,189,1.0,16.0,87,0.00,,,0.00,weatherlink.com 1.10,2013-05-28 12:52:00,
2013-05-28 08:07:00,74.4,70.0,29.90,SE,142,2.0,14.0,87,0.00,,,0.00,weatherlink.com 1.10,2013-05-28 13:07:00,
2013-05-28 08:22:00,75.4,71.0,29.89,SSW,200,6.0,11.0,86,0.00,,,0.00,weatherlink.com 1.10,2013-05-28 13:22:00,
2013-05-28 08:37:00,75.9,71.0,29.89,SSE,166,4.0,14.0,85,0.00,,,0.00,weatherlink.com 1.10,2013-05-28 13:37:00,
2013-05-28 08:52:00,76.0,71.0,29.90,SSE,158,2.0,12.0,84,0.00,,,0.00,weatherlink.com 1.10,2013-05-28 13:52:00,
2013-05-28 09:07:00,76.2,71.0,29.90,SE,138,9.0,16.0,84,0.00,,,0.00,weatherlink.com 1.10,2013-05-28 14:07:00,
2013-05-28 09:22:00,76.3,71.0,29.91,South,169,5.0,15.0,83,0.00,,,0.00,weatherlink.com 1.10,2013-05-28 14:22:00,
2013-05-28 09:37:00,76.8,72.0,29.90,South,179,11.0,12.0,84,0.00,,,0.00,weatherlink.com 1.10,2013-05-28 14:37:00,
2013-05-28 09:52:00,78.3,71.0,29.91,South,182,6.0,23.0,79,0.00,,,0.00,weatherlink.com 1.10,2013-05-28 14:52:00,
2013-05-28 10:07:00,78.3,71.0,29.90,SW,216,7.0,16.0,77,0.00,,,0.00,weatherlink.com 1.10,2013-05-28 15:07:00,
2013-05-28 10:22:00,79.6,71.0,29.90,SSW,194,4.0,17.0,75,0.00,,,0.00,weatherlink.com 1.10,2013-05-28 15:22:00,
2013-05-28 10:37:00,79.3,70.0,29.90,SSE,165,13.0,21.0,73,0.00,,,0.00,weatherlink.com 1.10,2013-05-28 15:37:00,
2013-05-28 10:52:00,79.6,71.0,29.90,SSW,208,3.0,19.0,74,0.00,,,0.00,weatherlink.com 1.10,2013-05-28 15:52:00,
2013-05-28 11:07:00,81.1,71.0,29.90,SE,137,5.0,18.0,71,0.00,,,0.00,weatherlink.com 1.10,2013-05-28 16:07:00,
2013-05-28 11:22:00,82.2,71.0,29.90,SSE,160,11.0,15.0,69,0.00,,,0.00,weatherlink.com 1.10,2013-05-28 16:22:00,
2013-05-28 11:37:00,82.0,70.0,29.90,South,184,12.0,16.0,67,0.00,,,0.00,weatherlink.com 1.10,2013-05-28 16:37:00,
2013-05-28 11:52:00,81.9,70.0,29.89,SSE,165,6.0,15.0,67,0.00,,,0.00,weatherlink.com 1.10,2013-05-28 16:52:00,
2013-05-28 12:07:00,82.3,70.0,29.89,SSE,159,5.0,16.0,66,0.00,,,0.00,weatherlink.com 1.10,2013-05-28 17:07:00,
2013-05-28 12:22:00,83.6,71.0,29.89,SSW,200,1.0,19.0,66,0.00,,,0.00,weatherlink.com 1.10,2013-05-28 17:22:00,
2013-05-28 12:37:00,83.6,70.0,29.89,SSE,150,5.0,16.0,64,0.00,,,0.00,weatherlink.com 1.10,2013-05-28 17:37:00,
2013-05-28 13:07:00,84.5,69.0,29.89,SE,142,6.0,16.0,59,0.00,,,0.00,weatherlink.com 1.10,2013-05-28 18:07:00,
2013-05-28 13:22:00,84.9,71.0,29.89,South,184,3.0,13.0,63,0.00,,,0.00,weatherlink.com 1.10,2013-05-28 18:22:00,
2013-05-28 13:37:00,85.4,70.0,29.89,SSW,199,7.0,16.0,60,0.00,,,0.00,weatherlink.com 1.10,2013-05-28 18:37:00,
2013-05-28 13:52:00,84.4,71.0,29.87,SSW,211,9.0,14.0,64,0.00,,,0.00,weatherlink.com 1.10,2013-05-28 18:52:00,
2013-05-28 14:07:00,85.6,71.0,29.86,SSE,154,7.0,12.0,62,0.00,,,0.00,weatherlink.com 1.10,2013-05-28 19:07:00,
2013-05-28 14:22:00,84.7,70.0,29.86,SSW,211,9.0,14.0,61,0.00,,,0.00,weatherlink.com 1.10,2013-05-28 19:22:00,
2013-05-28 14:37:00,85.2,70.0,29.86,South,171,4.0,16.0,60,0.00,,,0.00,weatherlink.com 1.10,2013-05-28 19:37:00,
2013-05-28 14:52:00,86.3,69.0,29.86,SSE,159,5.0,16.0,56,0.00,,,0.00,weatherlink.com 1.10,2013-05-28 19:52:00,
2013-05-28 15:07:00,87.6,68.0,29.86,South,169,10.0,16.0,53,0.00,,,0.00,weatherlink.com 1.10,2013-05-28 20:07:00,
2013-05-28 15:22:00,87.9,66.0,29.85,South,185,6.0,14.0,49,0.00,,,0.00,weatherlink.com 1.10,2013-05-28 20:22:00,
2013-05-28 15:37:00,88.0,68.0,29.84,SE,138,3.0,14.0,52,0.00,,,0.00,weatherlink.com 1.10,2013-05-28 20:37:00,
2013-05-28 15:52:00,87.9,68.0,29.83,SE,132,7.0,17.0,51,0.00,,,0.00,weatherlink.com 1.10,2013-05-28 20:52:00,
2013-05-28 16:07:00,86.9,69.0,29.82,SE,130,4.0,13.0,55,0.00,,,0.00,weatherlink.com 1.10,2013-05-28 21:07:00,
2013-05-28 16:22:00,87.4,68.0,29.82,ESE,116,7.0,17.0,53,0.00,,,0.00,weatherlink.com 1.10,2013-05-28 21:22:00,
2013-05-28 16:38:00,87.6,68.0,29.81,SE,145,9.0,16.0,53,0.00,,,0.00,weatherlink.com 1.10,2013-05-28 21:38:00,
2013-05-28 16:53:00,87.5,67.0,29.81,ESE,120,8.0,18.0,51,0.00,,,0.00,weatherlink.com 1.10,2013-05-28 21:53:00,
2013-05-28 17:08:00,87.0,68.0,29.81,ESE,109,7.0,13.0,53,0.00,,,0.00,weatherlink.com 1.10,2013-05-28 22:08:00,
2013-05-28 17:23:00,87.8,67.0,29.80,SE,142,11.0,20.0,51,0.00,,,0.00,weatherlink.com 1.10,2013-05-28 22:23:00,
2013-05-28 17:38:00,87.0,67.0,29.80,ESE,109,10.0,19.0,51,0.00,,,0.00,weatherlink.com 1.10,2013-05-28 22:38:00,
2013-05-28 17:53:00,85.8,67.0,29.80,SE,133,4.0,15.0,54,0.00,,,0.00,weatherlink.com 1.10,2013-05-28 22:53:00,
2013-05-28 18:08:00,85.4,68.0,29.80,SE,133,10.0,14.0,56,0.00,,,0.00,weatherlink.com 1.10,2013-05-28 23:08:00,
2013-05-28 18:23:00,85.2,69.0,29.79,ESE,119,2.0,14.0,59,0.00,,,0.00,weatherlink.com 1.10,2013-05-28 23:23:00,
2013-05-28 18:38:00,84.8,70.0,29.80,SE,144,9.0,18.0,62,0.00,,,0.00,weatherlink.com 1.10,2013-05-28 23:38:00,
2013-05-28 18:53:00,83.4,70.0,29.81,SE,133,6.0,21.0,65,0.00,,,0.00,weatherlink.com 1.10,2013-05-28 23:53:00,
2013-05-28 19:08:00,82.6,71.0,29.81,South,182,6.0,11.0,68,0.00,,,0.00,weatherlink.com 1.10,2013-05-29 00:08:00,
2013-05-28 19:23:00,82.1,71.0,29.81,SSE,148,8.0,16.0,69,0.00,,,0.00,weatherlink.com 1.10,2013-05-29 00:23:00,
2013-05-28 19:38:00,81.7,71.0,29.81,SE,132,6.0,10.0,71,0.00,,,0.00,weatherlink.com 1.10,2013-05-29 00:38:00,
2013-05-28 19:53:00,80.9,72.0,29.81,SE,144,5.0,20.0,73,0.00,,,0.00,weatherlink.com 1.10,2013-05-29 00:53:00,
2013-05-28 20:08:00,79.5,72.0,29.81,ESE,120,11.0,11.0,77,0.00,,,0.00,weatherlink.com 1.10,2013-05-29 01:08:00,
2013-05-28 20:23:00,78.5,72.0,29.82,ESE,119,5.0,13.0,79,0.00,,,0.00,weatherlink.com 1.10,2013-05-29 01:23:00,
2013-05-28 20:38:00,77.9,71.0,29.82,East,100,2.0,13.0,80,0.00,,,0.00,weatherlink.com 1.10,2013-05-29 01:38:00,
2013-05-28 20:53:00,77.8,71.0,29.82,SE,130,1.0,7.0,80,0.00,,,0.00,weatherlink.com 1.10,2013-05-29 01:53:00,
2013-05-28 21:08:00,77.4,71.0,29.83,South,182,4.0,7.0,81,0.00,,,0.00,weatherlink.com 1.10,2013-05-29 02:08:00,
2013-05-28 21:23:00,77.5,71.0,29.83,SE,146,4.0,12.0,81,0.00,,,0.00,weatherlink.com 1.10,2013-05-29 02:23:00,
2013-05-28 21:38:00,77.5,71.0,29.83,ESE,109,2.0,13.0,80,0.00,,,0.00,weatherlink.com 1.10,2013-05-29 02:38:00,
2013-05-28 21:53:00,77.3,71.0,29.83,SSE,160,3.0,8.0,81,0.00,,,0.00,weatherlink.com 1.10,2013-05-29 02:53:00,
2013-05-28 22:08:00,76.9,71.0,29.84,SE,126,1.0,11.0,82,0.00,,,0.00,weatherlink.com 1.10,2013-05-29 03:08:00,
2013-05-28 22:23:00,76.6,71.0,29.85,SE,132,3.0,6.0,83,0.00,,,0.00,weatherlink.com 1.10,2013-05-29 03:23:00,
2013-05-28 22:38:00,76.3,71.0,29.85,SE,135,8.0,10.0,84,0.00,,,0.00,weatherlink.com 1.10,2013-05-29 03:38:00,
2013-05-28 22:53:00,76.0,71.0,29.85,SSE,161,5.0,6.0,84,0.00,,,0.00,weatherlink.com 1.10,2013-05-29 03:53:00,
2013-05-28 23:08:00,75.7,71.0,29.86,SSE,161,3.0,7.0,85,0.00,,,0.00,weatherlink.com 1.10,2013-05-29 04:08:00,
2013-05-28 23:23:00,75.4,71.0,29.86,SE,140,1.0,10.0,86,0.00,,,0.00,weatherlink.com 1.10,2013-05-29 04:23:00,
2013-05-28 23:38:00,75.1,71.0,29.86,South,172,2.0,8.0,86,0.00,,,0.00,weatherlink.com 1.10,2013-05-29 04:38:00,
2013-05-28 23:53:00,74.7,71.0,29.87,SE,138,0.0,3.0,87,0.00,,,0.00,weatherlink.com 1.10,2013-05-29 04:53:00,